Tracking 30918 objects as of 2-Jul-2025
HD Live streaming from Space Station
objects crossing your sky now

STARLINK-31030

Track STARLINK-31030 now!
10-day predictions
STARLINK-31030 is classified as:


NORAD ID: 58542
Int'l Code: 2023-192M
Perigee: 481.6 km
Apogee: 483.2 km
Inclination: 53.2 °
Period: 94.1 minutes
Semi major axis: 6853 km
RCS: Unknown
Launch date: December 8, 2023
Source: United States (US)
Launch site: AIR FORCE WESTERN TEST RANGE (AFWTR)
Your satellite tracking list
STARLINK-1497
Track 1 satellite(s)




NASA's NSSDC Master Catalog

Two Line Element Set (TLE):
1 58542U 23192M   25182.42528372 -.00001711  00000-0 -45685-4 0  9996
2 58542  53.1596 149.9809 0001176  91.3308 268.7827 15.30185318 87510
Source of the keplerian elements: AFSPC